Content
SEND FEEDBACK

Daily
Averages
Monthly
Summary
United States of America

ASHEVILLE, NORTH CAROLINA


Home > North America > United States > North Carolina
Elevation: 2240 feet     Latitude: 35 36N     Longitude: 082 32W

WEATHER
 
SELECT A DAY
Number of Records: 222,952;   Date Range: 1/1/95 - 4/18/14
 
SHARE

PRINT THIS DATA

[ ← Previous Day ]
WEATHER ALMANAC - MARCH 12, 2013
[ Next Day → ]
[ °C ]   °F
Weather ElementAverageHighLow
Temperature45.6 °F53.6 °F (2:10 am)37.9 °F (8:54 am)
Dewpoint39.6 °F51.8 °F (12:44 am)28.9 °F (5:54 pm)
Humidity81.5 %100 % (12:44 am)44 % (5:54 pm)
Barometer29.87 in30.03 in (9:54 pm)29.76 in (2:54 am)
Wind Speed12.8 mph23 mph (4:54 am)
Wind Gust31.1 mph (6:54 am)
Weather ElementAverage
Visibility8.1 mi
Wind DirectionW (273.5 °)

Weather ElementTotal
Precipitation0.78 in
Heating Degree Days19.3 (Base 65)
Averaged from 40 records on March 12, 2013
WEATHER CONDITIONS BREAKOUT
WIND DIRECTION BREAKOUT
WEATHER BY HOUR - MARCH 12, 2013
[ °C ]   °F
Local TimeTemperatureDewpointHumidityBarometerVisibilityWind DirectionWind SpeedGust SpeedPrecipitationEventsConditions
12:44 AM51.8 °F51.8 °F100 %29.83 in7.0 miSouth (180°)3.5 mph0.15 inRainLight Rain
12:51 AM51.8 °F51.8 °F100 %29.82 in6.0 miCalm0.15 inRainLight Rain
12:54 AM52.0 °F51.1 °F97 %29.79 in6.0 miCalm0.15 inRainLight Rain
1:14 AM51.8 °F51.8 °F100 %29.81 in7.0 miCalmRainLight Rain
1:33 AM51.8 °F51.8 °F100 %29.80 in6.0 miCalm0.02 inRainLight Rain
1:54 AM52.0 °F51.1 °F97 %29.77 in8.0 miCalm0.02 inRainLight Rain
2:10 AM53.6 °F51.8 °F94 %29.79 in8.0 miCalm0.02 inRainLight Rain
2:23 AM51.8 °F51.8 °F100 %29.78 in5.0 miCalm0.03 inRainLight Rain
2:54 AM52.0 °F51.1 °F97 %29.76 in5.0 miSouth (180°)3.5 mph0.06 inRainLight Rain
3:28 AM51.8 °F51.8 °F100 %29.78 in5.0 miWNW (290°)4.6 mph0.03 inRainLight Rain
3:54 AM48.0 °F46.0 °F93 %29.76 in4.0 miNNW (340°)17.3 mph0.05 inRainLight Rain
4:11 AM46.4 °F44.6 °F93 %29.79 in5.0 miNNW (340°)17.3 mph0.02 inRainRain
4:21 AM46.4 °F44.6 °F93 %29.79 in6.0 miNNW (340°)15.0 mph0.04 inRainRain
4:54 AM44.1 °F42.1 °F93 %29.78 in10.0 miNNW (330°)23.0 mph28.8 mph0.04 inOvercast
5:22 AM42.8 °F41.0 °F93 %29.80 in7.0 miNNW (340°)20.7 mph26.5 mphOvercast
5:54 AM42.1 °F39.9 °F92 %29.79 in7.0 miNNW (340°)21.9 mph28.8 mphOvercast
6:02 AM42.8 °F39.2 °F87 %29.81 in6.0 miNNW (340°)19.6 mph29.9 mphOvercast
6:54 AM41.0 °F39.0 °F93 %29.81 in10.0 miNorth (350°)18.4 mph31.1 mphOvercast
7:54 AM39.0 °F37.0 °F93 %29.84 in10.0 miNNW (340°)19.6 mph29.9 mphOvercast
8:05 AM39.2 °F37.4 °F93 %29.86 in2.0 miNorth (350°)17.3 mph27.6 mphOvercast
8:54 AM37.9 °F36.0 °F93 %29.89 in2.0 miNNW (340°)18.4 mph27.6 mphOvercast
9:01 AM39.2 °F35.6 °F87 %29.90 in10.0 miNorth (350°)16.1 mph25.3 mphOvercast
9:36 AM39.2 °F35.6 °F87 %29.91 in10.0 miNorth (350°)20.7 mph29.9 mphOvercast
9:54 AM39.0 °F35.1 °F86 %29.90 in10.0 miNNW (340°)12.7 mphOvercast
10:40 AM41.0 °F35.6 °F81 %29.92 in10.0 miNorth (350°)19.6 mph28.8 mphOvercast
10:54 AM41.0 °F34.0 °F76 %29.91 in10.0 miNorth (350°)13.8 mph26.5 mphOvercast
11:54 AM43.0 °F35.1 °F74 %29.91 in10.0 miNNW (340°)12.7 mph19.6 mphOvercast
12:54 PM45.0 °F36.0 °F71 %29.92 in10.0 miNNW (340°)18.4 mph29.9 mphMostly Cloudy
1:07 PM44.6 °F33.8 °F66 %29.94 in10.0 miNorth (360°)15.0 mph26.5 mphScattered Clouds
1:54 PM46.9 °F35.1 °F63 %29.91 in10.0 miNNW (330°)20.7 mph27.6 mphClear
2:54 PM48.0 °F35.1 °F61 %29.92 in10.0 miNorth (350°)16.1 mph26.5 mphClear
3:54 PM48.9 °F33.1 °F54 %29.91 in10.0 miNNW (330°)17.3 mph21.9 mphClear
4:54 PM50.0 °F32.0 °F50 %29.92 in10.0 miNNW (330°)15.0 mph20.7 mphClear
5:54 PM50.0 °F28.9 °F44 %29.93 in10.0 miNorth (360°)16.1 mphClear
6:54 PM48.0 °F28.9 °F48 %29.95 in10.0 miNorth (360°)16.1 mph25.3 mphClear
7:54 PM45.0 °F28.9 °F53 %29.99 in10.0 miNorth (350°)17.3 mph25.3 mphClear
8:54 PM43.0 °F30.0 °F60 %30.01 in10.0 miNorth (350°)8.1 mphClear
9:54 PM41.0 °F30.0 °F65 %30.03 in10.0 miNNW (340°)6.9 mphClear
10:54 PM41.0 °F30.0 °F65 %30.02 in10.0 miNNW (330°)13.8 mph18.4 mphClear
11:54 PM39.9 °F30.0 °F68 %30.03 in10.0 miNNW (330°)16.1 mphClear
Hourly data recorded from KAVL, located 11.39 miles away from Asheville, North Carolina







STORIES FROM OUR PARTNERS